Temp
9 9 9 10 10 10 11 12 12 12 12 13 13 13 14 14 15 16 16 17 17 17 18 19 19 20 21 22 23 23 22 23 23 23 23 23 23 22 20 20 21 22 21 22 21 21 20
7 8 8 9 9 10 10 11 12 12 12 13 13 13 13 14 15 15 16 17 17 17 18 18 19 19 19 19 22 22 22 23 22 23 22 22 22 22 21 20 20 21 21 21 20 20 19
5 6 7 7 8 9 9 10 10 11 12 12 13 13 13 14 14 15 16 16 17 17 17 18 18 18 19 21 21 22 22 22 23 22 22 22 22 22 22 20 21 21 20 19 18 19 18
4 5 5 6 7 7 8 9 10 10 11 11 12 13 13 14 14 15 16 17 17 17 18 18 18 19 18 21 21 21 22 22 22 22 22 22 22 22 21 21 20 19 18 18 20 18 17
3 4 4 5 5 6 7 8 8 9 10 10 11 12 13 13 14 15 16 17 17 17 18 18 17 18 19 20 21 20 21 21 22 22 22 22 22 21 20 17 16 15 18 19 20 18 17
2 3 3 4 5 5 6 6 7 8 9 10 10 11 11 12 13 14 15 16 17 17 17 17 17 17 19 19 20 20 20 20 21 22 22 21 21 16 14 15 17 18 18 18 19 19 17
2 2 3 4 4 4 5 5 6 6 7 9 9 10 11 11 12 13 15 16 16 16 17 15 17 15 18 19 20 21 20 20 21 21 19 19 16 16 16 16 18 18 18 17 17 19 17
2 2 2 3 4 4 5 5 5 5 6 7 8 9 10 11 12 13 14 13 11 11 10 15 17 15 17 15 14 19 19 19 20 18 18 17 16 17 17 17 17 17 17 16 17 18 17
1 2 2 2 3 4 4 5 5 5 6 6 7 8 9 10 11 12 13 13 12 12 11 14 15 15 17 16 14 16 18 19 18 17 17 16 18 18 18 18 18 17 16 16 17 17 14
1 1 1 2 2 3 4 4 4 5 5 5 6 6 8 9 10 12 13 13 13 13 10 12 15 17 17 16 16 18 17 19 18 16 17 16 17 17 17 17 16 16 16 17 17 17 15
1 1 1 1 2 3 3 4 4 4 4 5 5 6 6 8 10 12 12 13 13 14 12 16 16 17 17 16 18 19 18 18 16 17 16 16 18 17 16 16 16 16 18 17 16 15 16
1 1 1 1 2 2 3 3 3 4 4 4 5 6 6 6 8 11 12 13 14 11 10 14 16 16 16 17 18 18 17 18 18 16 16 15 18 18 17 18 16 18 18 17 14 14 13
1 1 1 1 1 2 2 3 3 3 4 4 4 5 6 6 7 9 11 12 10 9 14 14 16 16 16 17 17 18 16 15 15 15 14 15 15 16 19 17 17 17 15 12 13 13 16
0 1 1 1 1 1 2 2 3 3 3 4 4 5 5 6 6 8 9 9 9 10 11 15 15 14 15 17 16 17 16 15 15 15 13 14 14 15 16 16 15 15 14 12 14 13 14
0 0 1 1 1 1 1 1 2 2 3 3 4 5 6 7 7 7 8 9 9 9 13 13 14 13 14 15 16 17 15 14 15 14 15 14 14 16 16 17 16 16 14 15 14 14 12
-0 0 0 1 1 1 1 1 1 1 2 2 3 4 6 6 7 6 7 10 9 12 12 12 12 13 12 14 15 16 16 16 16 15 18 15 14 16 18 18 18 17 16 16 12 14 14
-1 -0 0 0 1 1 1 1 1 1 1 1 1 2 5 6 5 5 7 7 9 11 11 12 11 12 13 14 14 14 15 16 16 16 16 15 14 16 17 16 16 15 15 15 14 12 13
-1 -0 -0 0 0 1 1 1 1 1 1 1 1 0 4 4 3 2 4 7 8 9 10 10 11 10 11 12 12 12 14 15 18 17 14 14 13 12 16 17 16 16 16 16 12 14 10
-1 -1 -0 -0 0 1 1 1 1 1 1 0 1 2 3 2 1 1 3 4 6 7 7 8 9 10 11 10 11 12 13 15 16 16 16 14 13 13 14 15 16 15 15 15 14 12 14
-1 -1 -0 -0 0 0 1 1 1 1 1 0 1 -0 2 2 2 2 3 3 4 6 7 7 7 8 8 9 10 10 12 14 16 16 17 16 13 13 15 14 15 15 15 15 15 11 15
-2 -1 -1 -0 -0 0 1 1 1 1 1 0 1 0 2 1 1 3 2 3 3 4 6 7 6 7 7 7 8 9 11 12 13 15 14 13 15 13 14 14 14 16 16 15 15 16 14
-3 -1 -1 -0 -0 0 0 1 1 1 0 -0 1 1 1 1 2 2 2 2 2 3 4 4 4 6 6 7 8 9 10 10 12 13 13 12 14 11 11 13 13 14 14 15 16 14 13
-2 -1 -1 -1 -0 -0 0 0 1 0 -0 0 0 0 1 2 2 1 2 2 3 4 4 4 5 4 4 5 7 7 8 8 10 11 12 13 11 10 12 14 13 12 13 13 14 14 15
-2 -1 -1 -1 -0 -0 0 0 0 0 -0 -0 -0 0 0 0 1 2 3 3 3 3 3 4 4 4 5 5 5 5 6 8 8 10 11 10 11 10 12 12 12 16 16 16 15 16 14
-2 -1 -1 -1 -1 -0 -0 -0 0 0 -0 -0 -0 -0 -0 0 1 2 2 2 2 2 3 3 4 4 4 4 4 4 5 7 8 8 9 10 10 10 10 10 13 14 14 14 13 15 15
-1 -1 -1 -1 -1 -1 -0 -0 0 0 -0 -1 -0 -0 -0 -0 1 1 2 2 2 2 2 2 3 3 3 3 4 4 5 7 8 10 10 9 10 10 9 10 11 15 16 16 15 14 14
-1 -1 -1 -1 -1 -1 -1 -0 -0 -0 -0 -1 -1 -0 -0 -1 -0 0 1 1 2 2 2 3 3 4 5 4 4 5 6 8 7 7 9 9 9 9 9 9 12 12 15 16 13 14 18
-2 -2 -2 -2 -2 -1 -1 -1 -1 -0 -0 -1 -1 -1 -1 -1 -0 -1 0 -0 1 1 1 3 2 3 2 3 4 5 6 7 8 8 8 11 10 10 11 11 11 12 13 15 16 19 19
-2 -2 -2 -2 -2 -1 -1 -1 -1 -1 -1 -1 -1 -1 -2 -1 -1 -1 -1 -0 -0 1 1 1 2 3 3 2 4 5 6 8 9 8 10 9 12 12 13 13 13 16 16 17 17 18 18
Height
1556 1557 1557 1558 1559 1559 1560 1560 1560 1560 1560 1559 1559 1559 1558 1557 1556 1555 1553 1551 1549 1547 1544 1541 1539 1536 1534 1534 1533 1533 1532 1532 1531 1530 1529 1528 1528 1529 1531 1531 1529 1530 1531 1531 1531 1531 1533
1553 1554 1555 1555 1557 1557 1558 1557 1557 1557 1558 1558 1557 1557 1556 1556 1554 1553 1552 1551 1549 1547 1544 1541 1538 1536 1536 1536 1532 1531 1531 1531 1531 1531 1530 1530 1530 1530 1530 1531 1531 1530 1530 1529 1529 1531 1533
1550 1551 1552 1552 1554 1554 1556 1555 1554 1554 1556 1556 1555 1555 1554 1553 1553 1551 1550 1549 1548 1546 1543 1541 1539 1536 1534 1532 1530 1530 1529 1528 1530 1530 1530 1531 1531 1531 1531 1530 1530 1529 1531 1529 1529 1530 1532
1546 1547 1547 1550 1549 1551 1552 1551 1552 1551 1553 1554 1553 1552 1552 1550 1551 1550 1548 1546 1545 1543 1540 1538 1537 1535 1531 1529 1527 1527 1526 1527 1528 1528 1529 1530 1531 1531 1531 1531 1530 1531 1533 1541 1529 1531 1533
1545 1545 1546 1546 1547 1547 1547 1547 1549 1548 1551 1551 1551 1549 1549 1548 1549 1547 1546 1544 1542 1540 1537 1536 1535 1533 1527 1526 1526 1526 1525 1525 1526 1528 1528 1528 1530 1531 1532 1536 1542 1541 1545 1538 1533 1530 1533
1544 1543 1544 1543 1542 1543 1543 1544 1545 1545 1548 1548 1548 1548 1546 1547 1548 1547 1543 1541 1538 1537 1535 1533 1533 1534 1527 1527 1526 1525 1525 1525 1525 1526 1527 1528 1529 1533 1537 1542 1557 1546 1543 1540 1539 1531 1533
1542 1541 1540 1541 1542 1542 1541 1540 1542 1543 1543 1545 1544 1544 1544 1547 1545 1545 1543 1539 1540 1538 1535 1537 1533 1532 1527 1526 1526 1523 1524 1524 1525 1526 1528 1528 1534 1539 1535 1537 1536 1538 1541 1543 1534 1527 1530
1540 1540 1540 1541 1541 1540 1540 1539 1540 1540 1540 1539 1539 1540 1542 1544 1544 1545 1544 1543 1546 1548 1535 1529 1524 1523 1520 1523 1522 1518 1523 1526 1523 1527 1527 1532 1538 1527 1528 1531 1535 1538 1542 1541 1531 1525 1528
1539 1539 1538 1538 1538 1538 1537 1537 1538 1538 1538 1537 1537 1537 1539 1541 1543 1544 1545 1545 1546 1544 1540 1522 1519 1517 1516 1517 1516 1512 1519 1521 1522 1526 1527 1532 1527 1523 1528 1531 1535 1536 1540 1538 1536 1528 1529
1536 1536 1536 1535 1535 1535 1535 1536 1537 1536 1536 1535 1535 1534 1535 1539 1544 1543 1544 1545 1545 1544 1546 1527 1517 1515 1515 1516 1515 1512 1511 1519 1521 1524 1526 1528 1521 1523 1527 1530 1531 1540 1527 1529 1530 1534 1545
1533 1533 1533 1533 1533 1534 1534 1534 1534 1534 1534 1534 1532 1533 1534 1536 1539 1541 1545 1544 1545 1545 1565 1520 1515 1514 1513 1517 1515 1512 1511 1516 1520 1521 1525 1527 1521 1524 1528 1527 1524 1530 1521 1525 1526 1532 1531
1530 1531 1531 1531 1531 1531 1531 1531 1531 1531 1531 1531 1530 1532 1533 1534 1537 1540 1542 1543 1546 1558 1560 1522 1513 1513 1515 1514 1513 1513 1514 1517 1518 1521 1522 1523 1520 1519 1520 1518 1520 1519 1521 1523 1527 1533 1544
1525 1526 1527 1527 1528 1528 1528 1529 1529 1530 1530 1530 1531 1532 1532 1532 1535 1537 1541 1545 1557 1562 1526 1519 1513 1513 1515 1515 1514 1512 1515 1519 1525 1531 1532 1522 1520 1516 1516 1521 1517 1521 1533 1554 1549 1545 1531
1520 1521 1522 1523 1524 1524 1526 1527 1528 1528 1529 1529 1528 1529 1529 1532 1533 1536 1540 1546 1555 1525 1522 1512 1513 1515 1517 1513 1514 1512 1514 1520 1518 1521 1531 1531 1533 1514 1509 1512 1517 1521 1528 1552 1546 1546 1535
1516 1517 1518 1519 1520 1522 1523 1525 1526 1526 1527 1527 1527 1527 1528 1530 1532 1534 1539 1540 1523 1517 1512 1515 1514 1520 1519 1514 1515 1513 1515 1515 1512 1514 1527 1531 1526 1506 1506 1505 1510 1516 1527 1516 1528 1525 1535
1511 1512 1514 1515 1516 1517 1520 1521 1523 1523 1525 1526 1526 1526 1526 1528 1530 1534 1534 1518 1513 1508 1509 1511 1520 1518 1522 1517 1520 1518 1513 1502 1504 1503 1502 1512 1524 1503 1500 1502 1504 1507 1507 1523 1536 1537 1531
1506 1508 1508 1510 1511 1512 1514 1517 1519 1521 1523 1525 1527 1527 1524 1525 1528 1532 1522 1515 1509 1510 1514 1516 1519 1518 1515 1517 1517 1518 1509 1499 1498 1499 1501 1507 1515 1505 1501 1505 1506 1511 1513 1511 1515 1526 1528
1501 1502 1503 1505 1506 1508 1510 1514 1516 1518 1521 1524 1526 1527 1523 1524 1531 1527 1520 1514 1514 1512 1516 1517 1516 1515 1516 1519 1519 1520 1509 1503 1497 1498 1503 1501 1511 1516 1503 1491 1490 1494 1499 1501 1524 1516 1519
1496 1495 1498 1499 1500 1502 1505 1509 1512 1515 1517 1521 1523 1522 1522 1523 1527 1525 1520 1517 1516 1517 1518 1518 1514 1513 1513 1517 1522 1509 1503 1491 1501 1500 1497 1499 1509 1517 1504 1497 1491 1492 1491 1491 1496 1501 1497
1489 1489 1491 1492 1493 1497 1500 1504 1507 1510 1513 1518 1521 1521 1520 1520 1520 1521 1522 1520 1517 1513 1514 1517 1516 1516 1517 1513 1517 1506 1499 1494 1495 1495 1494 1493 1498 1499 1496 1493 1487 1491 1485 1485 1488 1504 1485
1480 1483 1485 1485 1487 1491 1495 1497 1502 1505 1508 1513 1515 1514 1513 1514 1516 1519 1523 1517 1513 1514 1512 1515 1509 1510 1516 1515 1513 1505 1491 1496 1500 1499 1494 1490 1490 1489 1479 1477 1479 1476 1475 1477 1479 1472 1484
1474 1474 1476 1477 1483 1485 1489 1491 1496 1500 1504 1507 1507 1509 1511 1512 1513 1516 1516 1510 1509 1506 1515 1511 1511 1510 1514 1512 1500 1500 1508 1503 1497 1494 1489 1488 1478 1483 1482 1472 1474 1475 1465 1464 1464 1465 1467
1463 1466 1469 1473 1476 1478 1482 1486 1491 1493 1497 1497 1502 1505 1507 1506 1509 1513 1507 1505 1502 1505 1504 1504 1509 1512 1510 1500 1509 1506 1507 1502 1497 1493 1489 1483 1485 1484 1476 1470 1472 1473 1458 1464 1456 1453 1453
1455 1459 1463 1466 1470 1473 1476 1481 1484 1487 1490 1495 1496 1501 1505 1498 1504 1501 1501 1503 1499 1501 1501 1497 1506 1504 1489 1504 1504 1500 1496 1490 1491 1480 1484 1482 1478 1478 1469 1470 1475 1433 1436 1442 1447 1441 1440
1446 1451 1455 1459 1463 1467 1471 1474 1478 1482 1485 1488 1493 1498 1496 1494 1497 1495 1497 1498 1496 1495 1496 1491 1488 1494 1496 1500 1500 1494 1480 1477 1460 1472 1466 1473 1472 1468 1470 1461 1445 1430 1434 1438 1444 1428 1428
1438 1443 1447 1452 1456 1460 1464 1468 1472 1476 1480 1484 1487 1490 1493 1490 1482 1490 1492 1492 1489 1490 1489 1482 1480 1486 1490 1490 1489 1480 1471 1459 1451 1440 1444 1459 1462 1456 1461 1455 1448 1421 1422 1424 1432 1427 1411
1431 1436 1440 1445 1450 1454 1458 1462 1467 1471 1475 1478 1479 1483 1486 1481 1477 1484 1482 1480 1484 1485 1479 1476 1473 1477 1478 1474 1467 1460 1452 1448 1448 1444 1441 1441 1444 1442 1446 1442 1425 1416 1417 1419 1439 1399 1402
1425 1429 1434 1439 1444 1448 1453 1457 1462 1466 1470 1472 1472 1476 1480 1474 1467 1472 1474 1475 1477 1477 1474 1468 1474 1465 1464 1463 1452 1439 1430 1428 1431 1416 1420 1418 1427 1424 1429 1432 1420 1406 1413 1416 1391 1392 1396
1420 1423 1427 1433 1438 1443 1448 1452 1456 1460 1464 1467 1466 1470 1474 1472 1458 1461 1460 1461 1461 1457 1465 1466 1460 1457 1455 1451 1435 1430 1415 1407 1406 1405 1399 1405 1397 1397 1390 1374 1388 1388 1391 1392 1391 1390 1393
Wind_Speed
18 17 15 13 15 15 15 15 14 14 15 14 15 15 15 15 16 17 17 17 17 17 17 18 18 19 16 8 3 5 4 5 6 7 9 11 11 7 3 4 7 2 3 5 3 10 10
16 19 18 17 16 17 17 16 16 15 16 16 15 16 16 17 17 18 18 18 17 17 18 18 18 18 17 8 5 7 9 8 6 7 8 7 5 6 1 3 2 5 5 7 6 13 12
14 14 16 18 18 17 17 16 16 16 17 17 17 17 18 18 18 19 19 19 18 16 17 16 17 18 20 13 7 11 14 15 10 8 6 6 6 5 6 6 4 5 4 3 6 13 5
10 13 15 16 17 19 20 17 17 16 17 17 18 18 19 19 20 20 20 19 19 18 20 20 19 18 13 13 13 10 13 17 10 7 7 8 8 5 2 5 5 4 4 4 2 8 9
11 11 12 15 16 15 16 20 20 18 18 17 17 17 19 19 20 20 21 21 20 19 22 21 15 10 12 2 2 4 6 5 7 9 9 8 5 2 2 3 5 6 2 1 5 13 6
12 12 12 12 13 15 16 16 17 20 21 19 17 17 16 18 19 19 20 21 20 15 10 9 4 6 6 8 9 7 4 4 2 4 2 2 2 3 3 4 3 2 2 3 4 3 5
12 13 13 13 12 13 14 15 17 17 17 21 19 20 19 16 16 17 19 21 10 5 16 12 20 22 32 24 23 14 10 9 3 2 3 1 3 6 8 5 2 2 2 6 5 6 7
14 13 13 13 13 13 13 13 13 15 16 16 19 21 21 16 14 12 13 8 9 10 14 24 24 28 31 31 18 29 23 8 2 4 3 3 4 10 3 5 4 3 5 9 7 1 4
14 14 14 14 13 13 13 13 13 13 12 14 15 19 18 16 10 8 6 5 8 10 7 14 11 13 13 5 10 17 19 7 5 4 5 7 6 6 4 2 3 4 4 7 7 3 2
14 15 14 14 14 13 12 12 12 12 11 11 11 14 13 13 10 6 2 2 5 6 4 7 4 2 2 3 5 10 12 13 4 9 4 6 6 6 6 6 7 4 7 7 6 1 5
15 15 15 14 14 13 12 12 11 11 11 10 11 9 8 9 6 8 7 3 3 4 5 4 3 2 1 5 8 9 3 12 5 4 5 8 4 3 5 8 6 8 3 4 6 5 1
16 15 15 14 14 14 12 12 11 10 10 10 10 8 6 9 15 12 7 5 5 5 8 6 3 3 3 4 3 2 3 6 3 5 4 6 3 4 7 5 6 3 4 4 2 3 4
17 17 17 16 15 15 13 12 11 10 10 10 10 8 5 8 10 17 11 8 4 5 2 5 3 2 2 2 2 2 4 5 5 2 3 3 5 4 10 5 9 3 4 4 4 1 9
18 17 18 17 15 15 13 12 11 11 11 10 10 9 7 10 12 15 13 3 6 6 8 2 3 4 2 2 4 4 3 2 4 3 2 1 7 6 3 14 10 5 9 5 5 3 4
18 17 17 17 16 15 14 12 11 10 10 10 10 9 9 9 19 14 13 8 9 7 4 3 6 4 3 3 5 1 5 6 9 10 7 4 6 4 5 3 10 4 5 6 5 3 2
19 19 18 18 17 15 14 13 11 9 7 7 8 7 11 11 19 18 4 13 6 5 4 6 8 7 3 5 5 0 2 3 4 14 15 5 8 7 5 4 6 6 5 1 2 4 8
20 20 19 19 18 17 15 14 11 9 7 9 5 4 7 20 17 10 10 8 5 13 11 1 3 3 3 1 5 4 7 5 5 5 16 5 5 6 2 6 8 1 3 3 2 5 5
23 21 20 19 20 19 17 16 13 10 10 11 7 2 13 21 7 4 10 4 7 5 4 7 2 6 10 5 8 9 8 7 7 2 8 8 4 6 16 9 6 8 10 8 5 5 5
26 23 22 21 21 21 19 18 16 13 17 14 6 3 9 24 4 3 5 6 12 5 4 3 5 6 1 3 6 14 22 36 29 10 5 6 4 5 9 4 1 6 5 6 3 2 12
27 26 23 22 21 22 21 20 18 17 19 15 7 3 6 21 8 3 1 4 7 5 14 21 12 16 15 12 14 14 17 8 17 26 22 11 6 9 16 8 4 4 7 8 12 6 11
29 27 24 22 22 23 22 21 20 20 21 20 10 6 8 4 9 13 10 5 7 4 12 10 5 19 18 11 19 23 30 23 26 30 7 8 18 9 16 14 8 14 13 13 16 20 11
30 27 24 22 24 24 23 22 21 22 22 25 9 5 7 2 2 14 13 9 13 14 6 8 12 10 13 19 27 29 18 18 21 10 6 2 15 6 10 8 9 10 16 16 17 8 9
30 28 25 25 25 25 24 24 25 26 28 18 22 11 5 6 8 7 11 11 12 10 16 28 17 13 15 25 28 33 31 34 34 21 18 11 6 5 15 2 1 10 17 10 10 7 9
30 29 26 26 27 27 26 26 26 28 32 31 19 15 10 5 9 12 10 18 18 17 19 27 19 18 39 29 31 34 37 42 38 35 33 18 12 6 17 3 18 18 9 15 21 18 14
31 30 27 28 28 28 27 26 26 28 31 30 28 23 8 5 11 13 19 21 27 30 27 31 36 36 35 26 13 15 18 19 33 32 34 25 17 7 8 12 15 20 3 8 8 23 16
30 29 28 29 29 27 27 26 26 27 31 29 29 29 21 12 16 22 21 23 15 16 16 34 41 37 38 13 12 22 15 19 15 13 30 32 26 14 10 13 22 29 15 15 3 21 14
28 27 28 29 29 27 26 26 26 26 28 30 31 27 27 13 25 21 11 11 20 12 9 16 14 12 18 9 14 16 19 15 19 31 26 22 23 27 20 14 13 6 2 18 10 14 15
25 27 29 29 27 26 26 25 25 26 27 28 33 31 28 14 28 22 23 30 25 22 14 13 12 12 7 8 6 9 10 15 19 26 13 32 19 20 24 24 28 12 10 23 18 9 11
24 26 28 32 25 25 25 25 24 25 26 26 32 29 28 31 36 28 30 32 42 50 33 21 22 23 8 2 4 5 7 6 18 22 18 17 22 18 19 22 5 22 23 29 11 7 23
Wind_Direction
254 254 264 266 277 279 276 280 287 291 296 299 305 310 315 318 322 326 331 335 339 338 335 335 336 338 348 342 306 263 278 304 335 348 2 13 27 16 18 335 350 86 2 6 170 163 153
251 255 256 260 262 274 284 279 278 284 287 290 294 301 308 312 318 324 328 331 335 336 330 330 332 331 335 317 275 262 270 268 309 340 3 1 8 357 17 355 35 317 320 300 170 155 155
256 252 254 256 261 262 265 275 282 281 282 287 289 292 296 302 308 316 323 326 332 331 324 322 323 325 314 296 275 263 269 275 281 298 321 359 348 338 330 328 330 305 336 311 190 160 149
279 264 259 256 259 259 262 265 270 278 283 284 287 289 293 297 303 311 319 325 330 326 319 319 314 312 287 302 288 296 283 273 273 268 288 308 316 322 306 314 351 21 46 15 218 152 172
289 280 269 260 257 259 262 263 264 266 273 281 288 286 291 296 303 309 318 323 327 318 319 317 311 296 284 305 344 12 354 330 260 259 283 267 264 348 355 61 3 6 255 272 325 181 157
295 288 282 275 267 264 264 263 265 264 263 272 279 285 293 298 302 313 322 324 324 318 323 323 344 311 279 302 306 282 354 1 317 233 273 208 131 62 40 74 242 285 334 316 266 203 167
285 287 285 283 277 270 266 269 263 265 267 264 271 280 287 301 310 322 329 342 353 319 319 281 288 278 283 289 288 280 280 296 279 196 174 54 105 214 235 202 183 4 257 263 262 251 188
285 283 284 280 277 274 271 271 273 272 267 270 267 271 276 287 308 325 342 34 40 321 301 301 295 274 275 276 282 266 266 269 210 207 117 30 228 238 164 175 217 260 292 286 291 316 188
280 280 280 283 280 277 275 273 274 275 277 274 271 266 269 273 290 317 338 28 10 337 275 303 282 276 297 274 235 276 245 228 190 201 203 195 223 100 160 188 216 229 209 253 236 339 17
275 281 278 278 280 276 271 271 273 276 279 280 278 266 263 263 270 257 238 94 17 341 354 281 276 296 325 219 264 322 243 209 193 212 187 234 253 220 232 232 167 253 212 240 261 185 248
284 272 277 274 274 273 270 267 268 273 278 280 281 288 260 230 184 186 154 115 95 3 328 249 262 270 165 194 305 18 195 195 201 169 132 240 171 161 215 225 156 235 265 241 249 215 163
277 267 268 268 267 270 267 267 266 266 270 274 277 278 259 216 194 188 183 157 126 51 249 300 233 187 157 206 279 39 107 191 263 180 289 230 269 205 217 232 180 292 324 332 52 139 222
275 272 261 266 261 262 264 263 262 260 258 263 269 261 231 190 204 197 189 164 74 181 297 246 227 118 216 256 288 235 141 170 184 106 262 330 227 244 214 254 287 153 64 317 311 225 257
277 274 264 260 264 259 259 258 256 254 254 255 258 259 244 200 175 191 186 86 196 210 204 4 89 13 48 40 243 230 160 217 224 100 103 192 319 177 191 202 195 171 162 182 255 209 261
278 274 268 258 258 258 252 250 252 251 247 252 255 251 243 197 200 180 183 197 211 179 192 202 20 358 246 275 194 279 219 213 199 170 181 198 257 289 233 168 146 238 171 204 258 249 278
275 272 268 260 254 254 252 248 247 245 239 242 245 261 235 209 199 201 209 220 221 169 77 40 176 192 245 196 236 352 214 212 225 187 186 226 288 215 239 132 251 180 167 235 354 289 262
272 269 267 262 254 249 248 246 243 236 215 204 210 234 194 197 184 189 214 220 241 256 338 335 207 292 225 151 240 224 243 280 208 200 193 159 187 261 67 196 206 288 240 223 181 166 252
269 266 266 264 255 247 244 241 238 224 199 202 188 218 198 183 172 224 228 230 333 297 337 266 292 241 258 291 272 277 258 223 9 172 166 205 174 256 241 237 200 205 218 205 189 249 218
267 265 263 262 254 245 243 237 232 215 203 192 190 183 189 170 200 219 292 307 274 261 62 280 261 210 59 248 270 240 259 266 276 268 231 184 224 296 293 344 115 212 202 204 194 137 239
268 260 260 258 252 243 239 234 228 215 204 193 176 187 190 202 220 142 52 263 261 275 252 243 268 296 287 274 252 271 273 294 273 247 258 193 205 199 253 232 169 220 205 208 211 223 255
270 255 253 254 248 238 237 230 225 214 202 194 196 222 195 189 240 243 235 254 239 249 224 268 255 236 253 278 272 258 260 271 267 281 279 176 245 242 251 253 211 244 243 223 221 242 226
266 252 249 250 245 237 233 225 222 209 200 201 188 181 189 218 168 196 209 224 242 256 254 261 266 286 272 259 250 273 291 272 265 269 211 275 241 209 252 229 210 233 240 232 238 227 245
258 249 244 243 238 234 229 223 217 207 201 205 213 225 213 208 217 214 228 243 256 260 258 252 253 264 257 257 283 291 289 292 278 282 270 244 241 247 263 273 56 256 237 219 233 207 198
253 242 239 236 230 228 225 223 219 213 212 214 210 216 211 229 223 231 249 243 249 253 259 265 265 244 259 279 291 286 277 268 273 270 263 273 256 240 262 229 251 259 189 221 233 234 220
247 234 236 230 226 226 224 221 218 216 216 219 220 220 213 246 230 236 246 250 259 259 257 269 265 263 274 280 280 281 275 267 250 259 246 248 251 246 247 241 271 275 198 200 184 254 223
230 229 230 225 224 222 223 221 218 217 216 222 230 232 230 255 241 248 255 255 257 261 268 263 267 264 263 258 239 246 246 254 248 254 230 239 250 244 243 256 265 262 234 203 144 260 185
225 227 224 221 219 218 220 220 219 217 217 224 233 233 233 248 255 241 234 246 239 230 260 280 290 269 253 240 239 235 244 245 239 253 249 221 227 239 241 251 257 220 224 155 175 253 193
222 221 217 215 214 218 220 220 219 219 220 223 234 236 234 252 259 251 246 242 251 243 250 246 310 263 229 235 251 233 224 230 235 256 278 224 218 225 232 236 246 195 165 202 234 211 237
228 229 229 211 209 218 219 220 222 222 222 225 240 242 244 247 260 266 262 263 253 246 247 252 252 260 284 351 279 252 246 200 232 254 218 232 228 222 202 221 166 190 207 215 232 248 235